Find Starlink 11232

NORAD ID: 60401 Int'l Des: 2024-141 Owner: SPXS Country: US Constellation: starlink operational
LEOCIRCULAR

实时位置

正在加载3D地球...

关于 Starlink 11232

正在加载描述...

即将过境

Passes for default location (London). Set your location on the main map for personalized predictions.

高度历史

Loading altitude history...

两行轨道根数

1 60401U 24141D 26125.40060060 .00000801 00000-0 11469-4 0 9999
2 60401 53.1590 166.4287 0001143 64.6981 295.4155 15.69715537100655
Epoch: May 5, 2026 • Age: 17 hours

当前状态

高度 377.1 km
速度 7.68 km/s
星下点 -48.89°S, 151.43°W
发射日期 Aug 10, 2024
运行时间 1.7 years
类型 internet

技术详情

分类 Payload
质量 960.00 kg
干质量 910.00 kg
总质量 960.00 kg
长度 0.30 m
直径 4.10 m
跨度 29.00 m
形状 Box + pan
制造商 SPXS
平台类型 Starlink V2MD
阶段状态 In Orbit
所有者/国家 SPXS/US

Most Searched